TimeCDT,TemperatureF,Dew PointF,Humidity,Sea Level PressureIn,VisibilityMPH,Wind Direction,Wind SpeedMPH,Gust SpeedMPH,PrecipitationIn,Events,Conditions,WindDirDegrees,DateUTC
12:15 AM,28.2,27.0,95,30.32,10.0,Calm,Calm,-,N/A,,Clear,0,2012-10-28 05:15:00
12:55 AM,27.9,25.7,92,30.32,10.0,Calm,Calm,-,N/A,,Clear,0,2012-10-28 05:55:00
1:15 AM,27.1,25.7,94,30.32,10.0,Calm,Calm,-,N/A,,Clear,0,2012-10-28 06:15:00
1:35 AM,25.7,24.8,96,30.32,10.0,Calm,Calm,-,N/A,,Clear,0,2012-10-28 06:35:00
1:55 AM,25.9,25.2,97,30.32,10.0,Calm,Calm,-,N/A,,Clear,0,2012-10-28 06:55:00
2:15 AM,25.2,23.9,95,30.32,10.0,Calm,Calm,-,N/A,,Clear,0,2012-10-28 07:15:00
2:35 AM,24.8,23.7,96,30.32,10.0,Calm,Calm,-,N/A,,Clear,0,2012-10-28 07:35:00
2:55 AM,26.1,24.8,95,30.32,10.0,Calm,Calm,-,N/A,,Clear,0,2012-10-28 07:55:00
3:15 AM,27.1,26.2,96,30.32,10.0,Calm,Calm,-,N/A,,Clear,0,2012-10-28 08:15:00
3:35 AM,25.3,23.7,94,30.32,10.0,Calm,Calm,-,N/A,,Clear,0,2012-10-28 08:35:00
3:55 AM,25.7,24.6,96,30.32,10.0,Calm,Calm,-,N/A,,Clear,0,2012-10-28 08:55:00
4:15 AM,25.5,24.8,97,30.32,10.0,Calm,Calm,-,N/A,,Clear,0,2012-10-28 09:15:00
4:35 AM,26.1,24.8,95,30.33,10.0,Calm,Calm,-,N/A,,Clear,0,2012-10-28 09:35:00
4:55 AM,26.6,24.3,91,30.33,10.0,Calm,Calm,-,N/A,,Clear,0,2012-10-28 09:55:00
5:15 AM,26.2,24.8,94,30.33,10.0,Calm,Calm,-,N/A,,Clear,0,2012-10-28 10:15:00
5:35 AM,26.4,25.0,94,30.33,10.0,Calm,Calm,-,N/A,,Clear,0,2012-10-28 10:35:00
5:55 AM,26.4,25.0,94,30.33,10.0,Calm,Calm,-,N/A,,Clear,0,2012-10-28 10:55:00
6:15 AM,25.2,23.2,92,30.33,10.0,Calm,Calm,-,N/A,,Clear,0,2012-10-28 11:15:00
6:35 AM,25.3,23.2,91,30.33,10.0,Calm,Calm,-,N/A,,Clear,0,2012-10-28 11:35:00
6:55 AM,25.0,21.9,88,30.34,10.0,Calm,Calm,-,N/A,,Clear,0,2012-10-28 11:55:00
7:15 AM,24.6,22.8,93,30.35,10.0,Calm,Calm,-,N/A,,Clear,0,2012-10-28 12:15:00
7:35 AM,24.4,22.3,91,30.35,10.0,Calm,Calm,-,N/A,,Clear,0,2012-10-28 12:35:00
7:55 AM,24.1,21.7,91,30.36,10.0,Calm,Calm,-,N/A,,Clear,0,2012-10-28 12:55:00
8:15 AM,24.6,22.5,91,30.36,10.0,Calm,Calm,-,N/A,,Clear,0,2012-10-28 13:15:00
8:35 AM,27.5,25.5,92,30.36,10.0,Calm,Calm,-,N/A,,Clear,0,2012-10-28 13:35:00
8:55 AM,29.1,26.4,90,30.37,10.0,Calm,Calm,-,N/A,,Clear,0,2012-10-28 13:55:00
9:15 AM,30.4,25.2,81,30.36,10.0,Calm,Calm,-,N/A,,Clear,0,2012-10-28 14:15:00
9:55 AM,32.7,23.4,68,30.36,10.0,Calm,Calm,-,N/A,,Clear,0,2012-10-28 14:55:00
10:15 AM,34.3,23.0,63,30.36,10.0,Calm,Calm,-,N/A,,Clear,0,2012-10-28 15:15:00
10:35 AM,35.2,18.1,50,30.36,10.0,Calm,Calm,-,N/A,,Clear,0,2012-10-28 15:35:00
10:55 AM,36.3,18.7,49,30.36,10.0,Calm,Calm,-,N/A,,Clear,0,2012-10-28 15:55:00
11:15 AM,37.0,18.7,48,30.36,10.0,East,3.5,-,N/A,,Clear,80,2012-10-28 16:15:00
11:35 AM,37.4,17.8,45,30.36,10.0,Calm,Calm,-,N/A,,Clear,0,2012-10-28 16:35:00
11:55 AM,37.8,18.3,46,30.35,10.0,Calm,Calm,-,N/A,,Clear,0,2012-10-28 16:55:00
12:15 PM,38.8,19.0,45,30.34,10.0,East,3.5,-,N/A,,Clear,80,2012-10-28 17:15:00
12:35 PM,39.2,18.5,43,30.34,10.0,Calm,Calm,-,N/A,,Clear,0,2012-10-28 17:35:00
12:55 PM,39.2,18.7,44,30.33,10.0,Calm,Calm,-,N/A,,Clear,0,2012-10-28 17:55:00
1:15 PM,39.7,19.0,43,30.32,10.0,East,3.5,-,N/A,,Clear,100,2012-10-28 18:15:00
1:35 PM,41.0,19.2,42,30.32,10.0,Calm,Calm,-,N/A,,Clear,0,2012-10-28 18:35:00
1:55 PM,40.8,18.7,41,30.32,10.0,Calm,Calm,-,N/A,,Clear,0,2012-10-28 18:55:00
2:15 PM,40.6,19.2,42,30.31,10.0,NE,3.5,-,N/A,,Clear,50,2012-10-28 19:15:00
2:35 PM,42.1,19.0,40,30.31,10.0,Calm,Calm,-,N/A,,Clear,0,2012-10-28 19:35:00
2:55 PM,41.5,19.6,41,30.31,10.0,Calm,Calm,-,N/A,,Clear,0,2012-10-28 19:55:00
3:15 PM,41.7,19.6,41,30.30,10.0,Calm,Calm,-,N/A,,Clear,0,2012-10-28 20:15:00
3:35 PM,41.7,18.1,39,30.30,10.0,Calm,Calm,-,N/A,,Clear,0,2012-10-28 20:35:00
3:55 PM,41.0,18.0,40,30.30,10.0,NNE,4.6,-,N/A,,Clear,20,2012-10-28 20:55:00
4:15 PM,40.6,18.5,41,30.30,10.0,NNE,4.6,-,N/A,,Clear,20,2012-10-28 21:15:00
4:35 PM,40.6,18.7,41,30.30,10.0,Calm,Calm,-,N/A,,Clear,0,2012-10-28 21:35:00
4:55 PM,40.5,18.9,42,30.30,10.0,Calm,Calm,-,N/A,,Clear,0,2012-10-28 21:55:00
5:15 PM,39.9,18.7,42,30.30,10.0,Calm,Calm,-,N/A,,Clear,0,2012-10-28 22:15:00
5:35 PM,39.6,19.8,45,30.30,10.0,Calm,Calm,-,N/A,,Clear,0,2012-10-28 22:35:00
5:55 PM,39.2,19.2,45,30.30,10.0,Calm,Calm,-,N/A,,Clear,0,2012-10-28 22:55:00
6:15 PM,37.4,23.5,57,30.30,10.0,Calm,Calm,-,N/A,,Clear,0,2012-10-28 23:15:00
6:35 PM,32.4,24.1,72,30.31,10.0,Calm,Calm,-,N/A,,Clear,0,2012-10-28 23:35:00
6:55 PM,33.4,25.0,71,30.31,10.0,Calm,Calm,-,N/A,,Clear,0,2012-10-28 23:55:00
7:15 PM,32.0,26.6,80,30.31,10.0,Calm,Calm,-,N/A,,Clear,0,2012-10-29 00:15:00
7:35 PM,30.0,24.8,81,30.31,10.0,Calm,Calm,-,N/A,,Clear,0,2012-10-29 00:35:00
8:15 PM,30.4,27.3,88,30.32,10.0,Calm,Calm,-,N/A,,Clear,0,2012-10-29 01:15:00
8:35 PM,28.8,26.1,90,30.32,10.0,Calm,Calm,-,N/A,,Clear,0,2012-10-29 01:35:00
8:55 PM,28.4,24.4,85,30.32,10.0,Calm,Calm,-,N/A,,Clear,0,2012-10-29 01:55:00
9:15 PM,29.3,24.3,81,30.32,10.0,Calm,Calm,-,N/A,,Clear,0,2012-10-29 02:15:00
9:35 PM,28.4,24.6,86,30.32,10.0,Calm,Calm,-,N/A,,Clear,0,2012-10-29 02:35:00
10:35 PM,28.4,26.4,92,30.32,10.0,Calm,Calm,-,N/A,,Clear,0,2012-10-29 03:35:00
10:55 PM,25.5,23.4,92,30.32,10.0,Calm,Calm,-,N/A,,Clear,0,2012-10-29 03:55:00
11:15 PM,28.4,24.6,86,30.32,10.0,Calm,Calm,-,N/A,,Clear,0,2012-10-29 04:15:00
11:55 PM,27.9,25.9,92,30.32,10.0,Calm,Calm,-,N/A,,Clear,0,2012-10-29 04:55:00